Flag for Germany Weather past 2 weeks in Wittenberg, Saxony-Anhalt, Germany

Now
36 °F

Passing clouds.


Feels Like: 28 °F
Forecast: 29 / 36 °F
Wind: 10 mph from South

Location: Holzdorf

Current Time: Jan 29, 2015 at 10:27:56 PM

Latest Report: Jan 29, 2015 at 9:20 PM


Visibility: N/A

Pressure: 28.94 "Hg

Humidity: 75%

Dew point: 28 °F

Location of WittenbergLocation

Historic Weather in Wittenberg — Graph

°F

Wittenberg temperature yesterday

Maximum temperature yesterday: 43 °F (at 2:20 PM)
Minimum temperature yesterday: 34 °F (at 5:20 AM)
Average temperature yesterday: 38 °F

Past Weeks' High & Low Weather Summary

 TemperatureHumidityPressure
High52 °F (Jan 15, 11:20 PM)100% (Jan 16, 6:20 PM)30.30 "Hg (Jan 16, 6:20 PM)
Low25 °F (Jan 18, 5:20 AM)47% (Jan 15, 11:20 PM)29.00 "Hg (Jan 29, 8:20 PM)
Average35 °F89%29.93 "Hg
* Reported Jan 14 8:20 PM — Jan 29 8:20 PM, Wittenberg, Weather by CustomWeather, © 2014

Note: Actual official high and low records may vary slightly from our data, if they occured in-between our weather recording intervals... More about our weather records

Advertising

Wittenberg weather history for previous 24 hours

 ConditionsComfort  
Time TempWeatherWind HumidityBarometerVisibility
8:20 PM
Jan 29
34 °FPassing clouds.8 mph81%29.00 "HgN/A
7:20 PM34 °FPassing clouds.9 mph87%29.03 "HgN/A
6:20 PM34 °FPassing clouds.8 mph87%29.06 "HgN/A
5:20 PM36 °FPassing clouds.10 mph81%29.09 "HgN/A
4:20 PM37 °FBroken clouds.10 mph81%29.12 "HgN/A
3:20 PM39 °FBroken clouds.16 mph65%29.15 "HgN/A
2:20 PM39 °FSnow flurries. Broken clouds.15 mph61%29.18 "HgN/A
1:20 PM39 °FBroken clouds.16 mph61%29.21 "HgN/A
12:20 PM39 °FBroken clouds.17 mph61%29.24 "HgN/A
11:20 AM39 °FScattered clouds.18 mph61%29.30 "HgN/A
10:20 AM37 °FScattered clouds.17 mph65%29.30 "HgN/A
9:20 AM36 °FScattered clouds.12 mph75%29.33 "HgN/A
8:20 AM34 °FScattered clouds.9 mph81%29.33 "HgN/A
7:20 AM34 °FPassing clouds.13 mph81%29.33 "HgN/A
6:20 AM36 °FPassing clouds.13 mph75%29.33 "HgN/A
5:20 AM36 °FPassing clouds.13 mph81%29.33 "HgN/A
4:20 AM36 °FPassing clouds.14 mph81%29.33 "HgN/A
3:20 AM36 °FPassing clouds.12 mph81%29.33 "HgN/A
2:20 AM37 °FPassing clouds.13 mph87%29.33 "HgN/A
1:20 AM37 °FPassing clouds.12 mph93%29.33 "HgN/A
12:20 AM39 °FPassing clouds.18 mph87%29.33 "HgN/A
11:20 PM
Jan 28
37 °FLight rain. Mostly cloudy.16 mph93%29.33 "HgN/A
10:20 PM37 °FLight rain. Passing clouds.15 mph93%29.33 "HgN/A
Weather by CustomWeather, © 2014

See weather overviewHow to use our weather pages